Погода в Кропоткине

Россия / Иркутская область     58°30′18″N   115°18′09″E
темп.,
°C
ветер,
м/с
пор.,
м/с
влажн.,
%
обл.,
%
осадки,
мм/ч
давл.,
гПа
погр.,
м
17 апреля, сб
сб1723:00−2юз142584100 0.1 999700
02:00−1юз14258664 0.2 996775
05:00−1юз132588100 0.8 995843
08:000юз142391100 1.4 9941091
11:00−2зсз81395100 2.2 997831
14:00−3з121886100 2.8 10011317
17:00−4з141981100 0.2 10041261
20:00−9сз2395100 0.4 100967
18 апреля, вс
вс1823:00−12зсз2293100 0.1 101315
02:00−15з3492100 0.1 101732
05:00−20з349949 0.0 102123
08:00−14з91383100 0.0 1022962
11:00−12з101170100 0.1 10231321
14:00−10зсз101270100 0.1 10231592
17:00−11зсз91278100 0.1 10241483
20:00−18з229279 0.1 10299
19 апреля, пн
пн1923:00−20зюз2210074 0.0 103110
02:00−17з119975 0.2 103012
05:00−22зсз2210082 0.1 10329
08:00−14зюз118964 0.1 1029126
11:00−10ююв23667 0.0 1026813
14:00−7ююв34575 0.0 10221019
17:00−7юв676530 0.0 1019910
20:00−13в4379100 0.0 101821
20 апреля, вт
вт2023:00−12в3384100 0.0 101335
02:00−12вюв3495100 0.9 1010172
05:00−12юв119696 2.3 101184
08:00−9ююз238893 2.4 1010198
11:00−4юз71175100 0.2 10091311
14:00−4зюз121578100 0.5 10101485
17:00−4з101485100 0.4 10131279
20:00−7зюз101685100 0.5 1016487
21 апреля, ср
ср2123:00−10зюз5109065 0.0 1018198
02:00−14зюз459887 0.1 102251
05:00−15зюз459767 0.0 102354
08:00−10з8118034 0.0 1023832
11:00−8з8872100 0.1 10231294
14:00−6з6671100 0.2 10231201
17:00−6з3466100 0.1 1024896
20:00−13зсз1181100 0.1 10279